Wind_Speed
11 8 9 2 2 4 4 7 3 3 2 2 1 3 6 3 6 4 9 17 39 40 34 33 30 28 26 23 23 25 26 27 27 26 25 23 22 21 20 19 18 16 14 12 11 10 9 8 6
8 4 2 2 3 3 5 5 8 6 6 3 3 2 0 2 3 7 15 25 38 42 39 35 32 29 27 24 24 25 26 26 25 23 22 21 20 19 18 17 16 14 12 10 8 7 6 4 3
6 1 3 4 5 8 6 5 11 8 9 5 1 1 2 1 3 15 15 30 38 40 41 38 33 30 28 25 24 25 26 25 24 23 21 19 18 17 16 15 13 12 9 7 6 4 3 1 0
2 4 3 3 9 7 7 6 4 3 2 1 2 2 4 11 5 8 27 34 32 31 40 39 35 32 29 27 24 24 26 26 24 22 21 19 17 16 14 12 11 9 7 5 4 2 1 1 2
3 2 3 4 9 4 7 7 6 7 7 2 5 1 3 5 15 22 26 26 25 20 34 35 33 31 28 26 25 24 25 25 23 21 19 18 16 14 13 11 9 7 5 3 2 2 2 4 5
2 3 2 13 8 13 6 7 5 2 6 8 2 6 2 14 16 31 35 31 23 24 26 34 32 31 29 27 24 22 22 23 22 19 17 16 14 13 11 9 8 6 4 2 2 3 5 6 8
6 4 6 3 18 10 9 5 5 3 5 7 4 4 0 7 22 19 29 34 27 21 24 32 31 30 29 27 24 22 21 22 22 19 16 15 13 11 9 7 5 3 2 2 4 5 8 8 10
5 4 6 7 8 16 4 1 2 6 8 5 8 7 6 8 34 30 29 28 23 17 18 21 30 30 30 28 25 23 21 22 23 21 17 14 12 9 7 4 3 2 3 4 6 7 9 11 12
5 3 7 10 9 5 3 2 4 1 3 3 5 7 6 30 34 35 28 23 19 18 20 19 26 30 29 27 25 23 21 21 22 21 18 15 12 9 7 5 4 4 5 7 10 10 11 11 12
5 5 8 6 8 5 3 2 4 1 0 2 3 2 19 33 29 29 29 24 25 24 23 22 26 26 29 28 27 25 23 22 22 21 19 17 14 11 8 7 6 5 6 7 9 11 12 12 14
5 8 5 5 4 4 3 3 4 2 4 6 8 7 10 20 19 19 24 32 34 33 25 27 32 32 30 29 27 25 23 23 24 23 20 16 13 11 10 7 5 6 8 10 10 11 12 14 15
5 9 6 5 4 4 2 3 8 4 7 1 10 14 12 12 17 17 20 27 32 35 37 35 35 33 31 29 27 25 24 23 23 22 20 19 16 13 10 8 7 8 9 7 8 12 15 14 14
8 4 4 11 8 5 3 6 8 10 11 9 14 10 18 13 15 20 15 18 31 36 40 37 33 32 32 29 28 27 26 25 24 23 20 17 15 11 8 8 8 7 7 8 10 12 10 10 11
2 9 13 8 6 3 5 5 6 6 5 4 12 16 16 14 11 15 18 18 17 21 25 33 32 32 31 29 29 28 26 24 23 21 20 17 15 12 9 8 7 4 3 5 6 5 6 9 14
6 3 6 7 6 5 7 9 19 12 5 8 14 17 7 9 9 7 22 24 26 26 28 31 33 29 27 25 26 25 25 24 23 22 20 18 17 12 8 5 3 3 3 5 4 3 7 11 13
4 5 4 4 10 8 10 18 2 10 9 10 12 15 9 6 9 11 18 21 18 14 14 21 18 28 26 24 25 26 24 23 23 22 20 18 16 13 9 6 3 3 2 4 4 6 7 11 15
3 4 5 4 13 8 16 6 11 9 9 9 11 13 10 11 8 15 21 22 22 21 18 14 11 21 26 25 24 25 24 23 24 22 20 19 17 14 10 8 6 4 1 4 7 7 9 14 16
4 3 4 8 6 10 7 3 3 6 7 9 10 11 10 9 8 16 24 30 33 29 21 19 6 7 11 22 27 27 26 25 25 24 22 18 16 14 11 10 8 5 5 7 9 11 9 16 20
4 3 3 6 6 6 4 6 7 5 6 7 7 8 7 9 7 13 20 28 27 22 19 17 6 1 1 10 18 24 23 20 20 20 18 20 17 15 14 12 10 7 9 12 13 11 12 20 23
8 3 3 3 3 4 1 4 7 7 4 11 10 8 11 7 8 7 15 24 25 26 15 12 18 16 20 9 25 8 17 19 22 20 20 20 17 16 14 13 13 11 12 12 15 17 16 14 19
8 4 2 2 3 1 2 4 3 2 4 3 5 10 9 14 14 11 10 12 15 25 28 20 29 31 23 17 22 33 13 18 20 20 20 19 19 17 16 15 15 13 11 14 17 17 18 13 14
6 6 6 5 3 3 3 3 4 5 4 2 5 7 9 12 8 9 8 15 24 25 22 23 36 45 42 30 19 29 26 4 10 19 22 21 21 18 16 16 14 13 11 13 13 14 16 12 11
4 8 8 5 2 1 2 5 6 8 4 9 12 9 9 9 12 13 15 21 20 25 24 26 34 30 33 35 40 40 20 22 17 20 24 23 19 14 13 13 12 11 10 12 11 11 10 8 8
7 4 3 4 3 2 5 5 4 6 9 4 11 11 11 11 12 9 9 15 19 20 24 25 24 20 22 25 25 24 25 28 27 21 23 24 21 17 13 12 11 8 8 9 8 9 8 7 8
3 6 1 3 1 5 3 5 8 3 5 8 15 14 13 11 8 8 9 7 14 20 24 23 25 24 22 25 28 24 20 26 27 25 23 22 19 16 12 11 8 6 7 6 7 7 7 9 11
4 5 4 5 5 2 2 5 5 5 7 6 10 16 12 10 8 9 8 10 15 17 26 22 18 18 25 30 23 18 17 21 26 23 23 22 18 13 10 9 6 4 4 5 6 9 11 11 11
1 2 2 5 1 4 3 5 4 6 3 5 8 8 9 8 7 7 9 12 12 17 22 19 22 20 21 19 20 24 25 28 29 27 25 20 16 13 11 8 5 4 5 7 10 13 13 11 11
4 7 1 3 3 3 4 4 5 1 6 6 6 10 12 9 7 8 8 10 12 18 21 19 22 17 19 14 22 28 32 32 32 29 25 21 17 14 10 7 4 6 8 11 12 11 10 13 15
3 0 5 5 3 4 1 5 1 8 7 11 14 15 16 16 14 12 9 14 14 19 20 23 18 22 24 28 27 31 33 33 32 29 25 21 17 12 7 6 7 9 11 11 11 11 14 17 18
6 6 5 4 2 2 3 6 1 6 8 10 12 16 15 16 14 11 8 15 19 22 25 23 24 26 26 29 34 34 35 34 32 26 21 17 14 10 7 8 9 8 9 10 12 15 16 18 17
Wind_Direction
293 305 308 340 53 68 247 253 254 159 229 208 73 176 186 109 164 205 134 167 161 160 165 167 164 158 153 149 150 149 147 145 141 141 140 139 137 135 135 137 137 136 136 136 133 130 127 125 123
316 338 112 85 125 163 251 245 249 208 166 275 106 349 158 138 39 126 121 164 165 161 163 167 165 161 156 155 155 154 153 150 145 144 142 139 138 138 139 139 140 143 144 146 144 142 141 139 131
322 199 108 164 184 211 214 232 237 281 335 173 29 157 324 10 62 148 146 157 162 162 164 166 166 163 160 159 159 159 159 155 152 148 146 142 140 141 143 144 145 145 145 145 144 144 145 143 345
161 28 22 161 229 238 201 223 238 332 134 89 71 111 84 19 127 152 148 158 157 161 166 166 166 166 165 163 163 164 164 162 158 154 151 148 147 147 148 148 147 148 150 151 154 165 191 288 306
136 75 178 219 244 229 224 255 270 316 312 331 146 170 52 48 123 137 140 152 150 160 167 166 168 168 167 167 167 168 170 168 165 161 156 153 151 150 151 151 151 154 157 160 194 240 280 295 306
92 113 156 217 233 238 244 234 283 249 295 295 95 117 122 131 127 147 159 163 157 160 169 170 172 171 170 173 171 171 172 173 172 168 162 157 156 155 156 158 159 162 173 194 262 290 297 307 315
156 129 202 228 227 255 217 172 235 208 252 265 110 78 18 140 136 144 157 164 165 164 167 174 175 174 174 176 175 174 176 177 178 176 171 167 165 163 163 165 169 172 196 245 285 299 304 314 318
137 121 185 218 196 247 239 114 208 207 252 125 141 167 200 190 152 159 163 163 157 161 168 176 179 178 179 179 180 179 180 182 182 181 178 176 175 173 176 186 197 240 284 297 297 301 306 313 317
137 160 211 210 196 162 58 113 263 240 129 9 206 169 224 162 155 146 153 157 157 166 173 180 184 182 182 183 183 184 185 186 185 184 184 183 183 183 192 211 237 269 296 305 304 305 304 308 313
180 195 215 187 162 117 26 349 323 63 359 27 330 271 146 157 162 155 160 171 168 172 174 178 187 188 187 186 187 188 189 189 188 188 188 191 191 195 206 213 221 250 277 294 305 313 311 308 311
214 228 184 214 143 103 178 289 301 7 220 186 206 221 185 156 166 173 169 173 175 178 174 183 186 191 191 190 191 191 193 191 191 193 194 195 199 202 209 220 228 268 286 294 301 306 305 308 312
250 221 228 251 115 99 174 327 305 245 233 148 233 180 190 175 177 174 180 180 172 181 188 190 191 191 190 194 196 196 196 196 194 197 198 200 203 204 213 238 257 277 297 289 300 305 312 310 311
243 268 256 232 264 230 205 214 240 267 275 285 226 222 197 192 170 187 193 194 181 181 189 190 191 190 192 194 197 200 201 200 198 200 203 204 203 204 224 253 264 271 291 285 296 305 309 317 322
224 187 250 251 234 221 192 230 197 252 211 260 182 204 210 171 162 186 185 180 196 183 186 187 192 195 194 194 198 201 203 205 205 205 205 205 206 209 230 246 249 273 314 297 299 288 305 330 331
253 273 264 228 195 188 159 269 230 238 259 261 188 211 149 103 76 132 180 178 185 194 188 190 192 197 201 202 202 203 206 208 211 213 209 205 201 206 230 207 202 97 57 83 61 16 340 323 323
224 162 195 243 167 181 169 248 144 206 193 226 214 210 148 118 112 85 146 154 170 169 170 185 195 199 202 212 211 211 211 214 215 212 210 210 208 206 205 197 160 110 64 52 23 19 10 354 345
286 190 187 299 175 157 186 242 176 197 186 219 215 204 179 140 126 111 113 132 133 139 139 164 194 214 209 212 220 222 220 214 218 220 216 220 219 215 199 185 163 173 85 50 50 45 25 7 352
177 169 171 196 208 202 175 252 288 153 176 212 180 195 179 159 146 141 122 124 115 115 134 160 186 202 231 239 231 230 228 225 226 229 229 228 226 215 194 161 153 138 106 80 67 58 39 18 1
5 129 166 180 228 185 167 167 223 242 145 198 197 165 160 157 147 148 139 139 125 123 116 141 166 136 2 326 282 228 227 225 216 207 214 217 214 198 182 153 138 123 105 77 61 53 39 24 17
275 296 267 261 270 172 103 188 216 199 168 176 190 183 157 138 151 187 179 161 153 153 145 188 188 255 248 297 12 202 192 184 189 175 184 182 181 180 168 151 127 116 100 74 57 47 48 39 30
238 207 263 221 312 227 99 334 171 66 75 144 196 196 167 166 167 179 184 175 180 179 195 231 232 218 224 236 254 290 224 164 161 156 148 149 161 158 145 133 127 107 85 66 50 40 43 44 33
230 208 239 288 55 158 104 230 207 159 95 102 173 180 187 160 163 174 174 178 186 189 203 199 217 224 216 217 222 243 265 234 150 150 145 141 137 133 127 129 115 101 82 65 48 34 35 35 28
219 182 198 211 162 100 328 98 270 125 172 190 205 202 196 185 175 181 197 197 191 182 177 184 195 209 218 225 212 195 206 202 174 145 137 121 119 130 134 123 106 84 62 53 36 26 27 27 16
244 212 67 61 114 70 217 116 284 190 194 156 199 210 196 190 189 190 197 198 193 186 197 202 208 217 210 197 184 188 177 173 161 152 138 129 141 148 142 115 87 76 55 44 27 9 7 11 18
145 97 63 60 62 213 225 101 240 253 218 180 179 202 202 201 197 186 186 183 181 177 184 199 211 219 205 193 180 183 188 175 158 159 142 144 150 155 137 102 91 71 53 33 8 5 9 1 357
176 139 148 160 179 184 272 207 241 223 190 214 191 189 195 190 197 192 187 191 196 172 182 184 175 161 172 169 178 169 168 187 165 158 158 164 161 153 121 114 122 78 50 25 19 5 0 352 353
177 134 194 105 23 72 239 306 282 151 107 149 172 156 201 202 198 191 185 193 175 160 176 175 164 171 167 168 168 176 189 185 166 165 174 165 154 141 137 135 116 88 38 17 0 353 349 354 357
105 163 117 9 121 155 296 291 224 176 186 150 170 202 199 193 187 195 197 202 197 157 170 170 158 170 186 154 169 163 169 163 165 174 163 151 143 140 142 130 89 35 13 3 352 354 1 357 352
99 271 64 104 75 137 77 270 16 285 230 195 201 202 194 188 186 195 186 187 191 172 166 177 168 171 164 164 162 157 155 160 168 158 146 140 137 137 125 91 42 17 5 360 6 10 3 357 348
145 168 121 112 203 171 160 273 206 334 288 229 221 196 201 190 178 184 142 156 155 143 147 158 150 147 145 145 152 150 154 157 150 140 135 136 124 112 85 47 23 9 15 17 17 9 0 354 347
Height
768 769 770 770 794 800 802 781 752 753 748 732 726 734 734 730 740 763 731 737 739 743 752 759 764 766 768 771 775 777 779 781 782 783 785 786 788 790 792 794 795 797 798 798 799 798 799 799 798
767 768 769 777 801 812 800 768 755 742 734 728 725 728 731 738 730 733 732 740 743 742 750 758 763 766 768 772 775 778 780 782 784 787 789 789 791 793 794 795 796 797 799 800 800 800 800 799 798
766 767 774 785 799 797 791 760 750 730 724 729 730 723 727 735 733 733 731 740 744 745 749 756 762 766 769 773 777 778 781 783 784 787 790 792 794 795 796 797 798 799 800 801 801 801 800 800 799
765 768 777 791 787 776 761 749 736 735 729 723 724 736 727 727 731 735 737 742 748 751 751 755 759 764 769 773 777 780 782 784 786 788 790 792 794 796 798 799 800 801 801 802 802 802 801 801 800
764 774 789 792 781 762 749 740 738 740 735 728 726 741 739 735 733 737 742 748 752 757 758 760 763 767 772 775 778 781 784 786 788 791 791 793 795 797 799 799 800 802 802 803 803 802 801 801 800
771 774 794 779 776 750 747 739 738 740 735 728 731 740 748 740 738 736 742 749 753 756 760 761 764 767 772 776 779 782 786 788 791 794 795 795 797 797 799 800 800 801 802 802 803 803 802 801 801
769 779 784 773 763 756 747 737 741 741 739 732 727 744 742 738 736 742 745 748 755 760 761 763 766 770 773 777 780 783 786 788 791 794 796 797 798 799 799 800 802 802 802 802 802 802 802 802 801
762 771 776 769 766 744 739 735 731 734 734 720 724 745 747 731 729 738 747 752 756 762 765 768 768 771 773 776 779 781 785 787 789 792 795 797 799 800 802 803 803 804 804 803 803 802 801 802 801
754 774 776 756 758 759 738 740 728 719 726 725 723 723 719 726 731 732 745 753 757 761 765 769 771 772 774 777 779 782 785 787 789 792 794 796 798 799 800 802 803 803 804 804 803 801 801 800 800
755 768 753 743 746 749 741 733 732 728 730 731 727 720 721 724 730 727 732 746 751 757 761 766 771 774 775 777 779 782 784 786 789 791 793 794 796 797 798 799 799 800 800 800 800 801 801 800 799
748 746 740 734 735 741 743 736 726 733 739 728 726 722 723 718 725 731 732 736 741 751 757 761 765 770 774 777 780 782 784 785 787 790 792 795 796 796 797 798 798 799 799 798 798 798 798 798 798
749 739 735 734 735 742 741 733 733 731 730 719 716 712 723 720 723 731 735 738 740 747 752 757 763 768 772 775 780 783 784 786 787 791 792 792 793 795 797 798 797 797 797 797 797 797 797 796 797
744 738 732 732 736 740 739 741 736 729 719 716 712 714 712 719 726 732 739 744 740 741 749 755 762 766 769 773 777 781 783 784 785 788 791 792 794 796 797 798 797 797 796 795 796 796 796 795 794
732 734 734 733 739 740 739 735 733 719 714 713 713 713 715 722 726 733 739 741 748 750 755 757 763 768 770 771 775 779 783 785 787 789 790 793 795 796 796 796 796 796 796 794 793 795 794 793 792
732 738 734 730 734 743 733 739 728 718 716 715 717 715 723 730 733 732 734 740 745 753 755 758 763 771 775 777 779 780 782 784 787 789 791 791 792 795 796 797 798 796 796 794 794 794 794 793 791
733 736 745 726 729 734 736 735 720 713 718 718 715 717 724 731 736 737 735 739 745 754 759 764 772 773 776 780 780 781 781 784 785 787 789 792 794 794 795 796 796 798 798 795 794 794 794 793 791
739 746 740 728 719 723 728 729 715 711 715 717 715 715 722 731 734 735 736 739 742 749 757 766 772 776 776 778 781 783 783 782 786 789 789 792 794 796 794 793 795 796 795 796 794 793 793 792 791
742 740 732 733 720 720 728 728 714 710 714 713 716 714 720 729 732 735 736 739 739 744 753 761 772 776 780 785 783 783 782 783 785 787 790 792 795 796 795 794 796 796 795 796 794 794 793 792 790
730 728 724 722 710 716 726 725 718 710 713 716 716 719 722 725 731 734 737 736 737 743 751 758 769 777 782 786 788 783 783 783 782 782 784 789 793 795 794 794 796 796 796 797 794 795 793 791 788
731 732 729 718 710 716 720 721 713 710 710 713 715 720 723 727 729 733 736 735 734 737 744 755 759 772 780 777 789 784 787 782 783 776 782 784 790 797 793 793 795 799 796 797 794 792 791 791 791
730 732 728 723 715 711 713 727 714 714 714 714 713 711 717 719 727 732 733 733 733 732 730 737 747 753 774 765 770 795 782 783 781 781 783 786 791 795 795 796 798 799 799 798 795 795 791 791 793
734 721 720 719 725 737 714 749 720 716 723 721 719 717 717 722 725 727 728 730 728 728 731 725 739 747 764 767 771 783 777 786 782 784 785 789 793 799 799 801 799 798 801 795 797 798 794 792 793
723 710 717 716 725 725 728 743 731 718 724 720 717 717 715 717 721 721 721 721 723 726 730 735 745 750 755 759 762 762 776 780 785 790 790 786 793 804 805 804 802 801 802 798 800 801 798 794 793
708 712 716 725 733 749 730 732 736 721 707 715 714 713 713 714 716 719 722 724 723 727 731 735 740 744 750 754 760 765 764 770 780 788 788 788 799 804 807 803 799 803 802 798 802 802 799 795 794
710 723 746 748 749 751 729 734 725 701 699 696 706 709 709 711 715 718 721 723 725 726 731 737 740 740 739 745 752 757 762 770 774 787 787 792 797 804 805 799 803 806 801 799 801 800 799 795 792
714 721 746 742 752 743 721 732 715 696 690 690 692 697 704 711 715 717 719 722 725 731 735 736 736 734 737 741 752 756 765 775 777 785 790 794 800 807 803 802 804 804 799 799 799 797 795 794 793
718 723 716 730 731 737 733 716 698 695 694 696 698 705 709 710 715 717 719 721 725 729 730 732 735 740 746 753 756 753 748 773 777 788 793 797 801 801 803 805 805 803 798 797 796 796 796 795 793
706 710 725 737 742 741 737 728 722 702 701 705 707 706 706 708 712 715 718 724 726 730 732 736 739 746 748 754 761 761 765 774 783 791 795 798 799 803 805 805 804 800 797 796 796 796 795 793 791
715 721 726 732 743 750 757 736 709 710 698 699 699 694 696 699 703 708 717 724 729 733 735 738 740 747 753 757 760 767 771 777 787 794 796 796 800 804 806 802 798 797 797 799 797 796 793 791 791
703 713 721 742 743 746 749 739 699 702 700 692 684 686 688 689 696 704 718 721 724 730 735 742 745 749 753 757 762 765 769 778 789 793 797 799 800 802 802 799 797 799 798 796 796 795 795 793 791